This is the latest recevied weather packets stored in our database for station/object EW2310. If no packets are shown the sender has not sent any weather packets the latest 10 day(s).
| Time | Temp. | Humidity | Pressure | Rain* | Wind** | Luminosity | Snow |
|---|---|---|---|---|---|---|---|
| 1778126144 | 15° C | 85% | 1011.6 hPa | 0 mm | - | 0 W/m² | - |
| 1778125244 | 15° C | 84% | 1011.8 hPa | 0 mm | - | 0 W/m² | - |
| 1778124644 | 15° C | 85% | 1011.9 hPa | 0 mm | - | 0 W/m² | - |
| 1778123744 | 14.44° C | 85% | 1011.9 hPa | 0 mm | - | 0 W/m² | - |
| 1778122544 | 14.44° C | 86% | 1011.8 hPa | 0 mm | - | 0 W/m² | - |
| 1778120447 | 14.44° C | 88% | 1011.8 hPa | 0 mm | - | 0 W/m² | - |
| 1778119544 | 14.44° C | 88% | 1011.8 hPa | 0 mm | - | 0 W/m² | - |
| 1778118044 | 14.44° C | 88% | 1011.8 hPa | 0 mm | - | 0 W/m² | - |
| 1778115644 | 13.89° C | 90% | 1011.6 hPa | 0 mm | - | 0 W/m² | - |
| 1778115344 | 13.89° C | 90% | 1011.7 hPa | 0 mm | - | 0 W/m² | - |
| 1778112344 | 13.89° C | 91% | 1011.8 hPa | 0 mm | - | 0 W/m² | - |
| 1778111444 | 14.44° C | 91% | 1011.9 hPa | 0.51 mm | - | 0 W/m² | - |
| 1778111144 | 14.44° C | 91% | 1012 hPa | 0.51 mm | - | 0 W/m² | - |
| 1778106347 | 15° C | 86% | 1012 hPa | 0 mm | - | 0 W/m² | - |
| 1778104844 | 15.56° C | 84% | 1011.9 hPa | 0 mm | - | 0 W/m² | - |
| 1778103947 | 15.56° C | 85% | 1012.1 hPa | 0 mm | - | 0 W/m² | - |
| 1778103347 | 15.56° C | 85% | 1012.2 hPa | 0 mm | - | 0 W/m² | - |
| 1778102744 | 15.56° C | 85% | 1012.2 hPa | 0 mm | - | 0 W/m² | - |
| 1778097947 | 16.11° C | 85% | 1012.2 hPa | 0 mm | - | 0 W/m² | - |
| 1778097644 | 16.11° C | 84% | 1012.2 hPa | 0 mm | - | 0 W/m² | - |
| 1778096444 | 16.67° C | 81% | 1012.3 hPa | 0 mm | - | 0 W/m² | - |
| 1778095244 | 16.67° C | 80% | 1012.2 hPa | 0 mm | - | 0 W/m² | - |
| 1778093744 | 17.22° C | 79% | 1011.8 hPa | 0 mm | - | 0 W/m² | - |
| 1778091044 | 17.22° C | 74% | 1011.6 hPa | 0 mm | - | 5 W/m² | - |
| 1778090744 | 17.22° C | 75% | 1011.6 hPa | 0 mm | - | 9 W/m² | - |
* Rain latest hour (hover to see other rain measurements)
** Current wind speed in m/s (hover to see current wind gust speed)